User: anonymous   Login
Location: Caltech
(34.1382°N, 118.1253°W)
Time: 01:27:34
(UTC-08:00)
Language:

HO-68 - Orbit

View from above orbital plane
View from above orbital plane
View from above satellite
View from above satellite

Ground track
Ground track

The orbit data is extracted from the following two-line orbital elements,

1 36122U 09072B   17053.87616161 -.00000003  00000-0  10243-3 0  9991
2 36122 100.1139  85.2282 0008014 135.8465 224.3290 13.16338323345594
Epoch (UTC): 22 February 2017 21:01:40
Eccentricity: 0.0008014
inclination: 100.1139°
perigee height: 1192 km
apogee height: 1205 km
right ascension of ascending node: 85.2282°
argument of perigee: 135.8465°
revolutions per day: 13.16338323
mean anomaly at epoch: 224.3290°
orbit number at epoch: 34559

The dashed part of the orbit path shows where the satellite is in the earth's shadow,  

DLR